Overview Statistics Trail Chart Weather Telemetry Raw packets
 

This is the latest recevied weather packets stored in our database for station/object W0WC. If no packets are shown the sender has not sent any weather packets the latest 10 day(s).

<< 10 11 12 13 14 15 16 >>
Time Temp. Humidity Pressure Rain* Wind** Luminosity Snow
1788619660 33.33° C 50% 1016.2 hPa 0 mm - 367 W/m² -
1788619356 32.78° C 50% 1016.4 hPa 0 mm - 349 W/m² -
1788619050 32.22° C 51% 1016.6 hPa 0 mm - 335 W/m² -
1788618749 31.67° C 52% 1016.3 hPa 0 mm - 318 W/m² -
1788618448 31.67° C 53% 1016.4 hPa 0 mm - 304 W/m² -
1788618143 31.67° C 52% 1016.3 hPa 0 mm - 288 W/m² -
1788617839 31.67° C 53% 1016.4 hPa 0 mm - 273 W/m² -
1788617534 31.11° C 54% 1016.3 hPa 0 mm - 258 W/m² -
1788617229 31.11° C 54% 1016.3 hPa 0 mm - 161 W/m² -
1788616929 30.56° C 54% 1016.5 hPa 0 mm - 117 W/m² -
1788616623 30.56° C 55% 1016.6 hPa 0 mm - 88 W/m² -
1788616320 30.56° C 56% 1016.5 hPa 0 mm - 82 W/m² -
1788616019 30° C 56% 1016.6 hPa 0 mm - 72 W/m² -
1788615718 30° C 57% 1016.5 hPa 0 mm - 76 W/m² -
1788615414 29.44° C 58% 1016.4 hPa 0 mm - 160 W/m² -
1788615114 29.44° C 59% 1016.3 hPa 0 mm - 143 W/m² -
1788614813 28.89° C 60% 1016.2 hPa 0 mm - 83 W/m² -
1788614508 28.89° C 61% 1016.3 hPa 0 mm - 78 W/m² -
1788614204 28.89° C 61% 1016 hPa 0 mm - 60 W/m² -
1788613904 28.33° C 61% 1016 hPa 0 mm - 53 W/m² -
1788613598 28.89° C 61% 1016.1 hPa 0 mm - 49 W/m² -
1788613292 28.33° C 61% 1016.1 hPa 0 mm - 54 W/m² -
1788612986 28.33° C 62% 1015.9 hPa 0 mm - 72 W/m² -
1788612682 28.33° C 62% 1016 hPa 0 mm - 62 W/m² -
1788612379 27.78° C 62% 1015.7 hPa 0 mm - 54 W/m² -

* Rain latest hour (hover to see other rain measurements)
** Current wind speed in m/s (hover to see current wind gust speed)